Theta_e
298 300 302 305 307 307 307 308 309 309 310 311 312 314 314 315 316 317 317 318 320 322 325 327 329 330 331 329 327 327 327 327 327 327 327 326 328 329 329 328 328 329 329 327 325 325 325 325 325 326 327 327 325 320 316 315 317 320 321 321 322 320 320 319 314 308 304 301 301 301 301 302 303 304
296 297 298 301 303 303 304 306 307 308 309 309 310 311 312 313 313 314 314 314 316 318 321 323 325 328 329 330 329 327 327 327 327 327 328 327 327 328 329 328 328 329 329 328 327 326 326 326 324 325 326 327 327 324 320 317 316 316 318 320 321 320 319 317 314 308 304 301 301 301 301 301 302 303
296 296 297 298 300 299 300 302 303 305 306 307 307 308 308 310 311 312 312 312 314 316 317 320 323 324 326 328 329 328 328 327 327 327 328 328 328 328 328 328 328 329 329 329 328 327 326 326 325 324 325 326 326 325 323 320 317 315 314 315 317 318 318 317 313 308 304 302 301 301 301 301 302 303
295 296 297 298 299 299 301 301 302 303 304 304 304 305 306 307 308 309 310 310 311 312 313 316 319 322 324 325 326 328 329 329 327 327 327 327 328 328 328 328 328 329 329 328 328 328 327 327 326 324 324 326 327 326 324 322 320 317 315 312 310 311 313 313 311 307 304 302 301 301 301 301 301 302
295 296 297 298 298 299 301 302 302 302 302 302 302 303 304 304 305 306 307 307 308 308 309 311 314 317 320 322 324 325 327 328 328 328 327 327 327 328 328 328 328 329 329 329 328 328 328 327 326 325 324 325 327 327 326 323 320 319 317 313 308 306 307 308 308 306 303 302 301 301 301 301 301 302
296 296 297 299 298 299 301 302 302 302 301 301 301 302 302 302 303 304 305 305 305 305 305 305 308 311 313 317 321 323 324 325 327 328 327 327 327 328 328 327 327 328 328 329 329 328 328 328 327 326 325 325 326 327 327 325 321 319 319 315 309 305 305 305 304 303 302 301 301 301 301 301 300 301
296 297 299 299 300 300 301 301 301 300 300 300 300 301 301 301 301 302 302 303 303 304 303 302 304 306 307 310 315 319 321 323 324 325 326 327 327 327 327 327 327 327 327 328 329 329 328 328 328 327 326 325 325 326 326 325 323 320 318 317 313 307 304 303 303 302 301 301 301 301 301 301 300 300
297 298 300 300 300 300 301 301 300 299 299 299 300 300 300 300 300 300 300 301 302 303 303 302 302 303 304 305 308 312 317 321 322 323 325 326 327 327 327 328 327 327 326 327 328 329 328 328 328 327 327 326 325 325 325 326 325 322 317 316 315 311 305 302 302 302 301 301 300 301 301 301 300 300
298 299 300 300 300 300 300 299 299 298 298 298 299 299 299 299 299 299 299 300 301 302 302 302 302 303 303 304 306 307 310 316 320 322 323 326 327 327 327 327 327 325 325 325 327 328 329 328 328 328 327 326 325 325 324 325 326 325 320 315 313 312 307 303 302 302 301 301 301 301 301 301 301 300
299 299 299 300 300 299 298 298 298 297 297 298 298 298 299 299 299 299 299 299 300 301 301 302 302 303 304 306 306 306 307 311 314 318 321 323 325 327 327 326 326 325 324 324 324 325 328 329 329 328 328 327 326 325 325 324 324 325 324 318 312 310 309 305 302 302 301 300 301 300 300 301 301 300
299 299 299 299 299 298 298 297 297 297 297 297 297 297 298 298 298 298 299 299 300 300 301 301 302 303 304 305 307 308 309 310 311 314 317 320 322 325 327 327 326 326 325 324 323 323 325 328 329 328 328 327 327 326 325 325 325 324 325 322 315 310 309 308 305 302 302 301 300 300 300 301 301 301
299 299 299 299 298 297 297 297 297 296 296 296 297 297 297 298 298 298 298 299 299 300 300 301 301 302 303 304 306 307 309 311 313 314 315 317 319 322 325 327 327 326 326 326 325 323 322 325 329 329 328 328 328 327 326 326 325 325 325 324 319 311 308 311 310 304 302 301 300 300 300 300 301 301
299 298 298 298 298 297 296 296 296 296 296 296 296 297 297 298 298 298 298 298 298 299 299 300 300 301 302 303 304 305 307 309 311 311 311 313 316 318 322 326 327 327 327 327 327 325 322 322 324 327 329 328 327 328 327 326 326 326 325 325 322 314 308 311 314 308 302 301 301 300 300 300 300 301
298 298 298 298 297 297 296 296 296 295 295 296 296 297 297 298 298 298 297 297 298 298 299 299 299 300 300 301 302 303 304 305 306 308 310 312 314 315 318 322 324 326 326 327 328 327 325 323 322 323 326 328 328 327 328 327 326 326 325 325 324 318 309 309 314 313 306 301 301 300 300 300 300 301
298 298 297 297 297 297 296 296 296 295 295 296 296 297 297 298 298 297 297 297 297 297 298 298 298 299 299 300 300 301 302 303 304 307 309 311 313 314 315 317 321 324 326 327 327 327 327 326 324 322 323 326 328 328 328 328 327 326 326 325 325 321 312 307 310 314 310 303 300 301 300 300 300 301
297 297 296 296 296 296 296 296 296 295 295 296 296 297 297 297 297 297 297 296 297 297 297 297 298 298 298 299 299 300 301 302 303 305 306 309 311 313 314 316 318 321 324 326 327 327 327 327 327 325 323 323 327 328 328 328 327 326 326 325 325 322 316 308 307 310 311 306 301 300 301 300 300 302
297 296 296 296 296 296 296 296 295 295 295 296 296 296 297 297 297 297 297 297 297 297 297 297 297 298 298 298 299 299 300 301 302 302 304 305 307 310 313 315 316 318 321 324 326 327 327 327 327 327 325 323 325 328 328 328 327 327 326 325 325 324 319 312 307 308 310 307 302 300 301 300 300 302
297 296 296 296 295 295 296 295 295 294 295 296 296 296 296 297 297 297 297 297 297 297 297 297 297 297 297 297 298 298 299 299 300 301 302 303 305 307 309 312 314 316 319 323 325 326 326 327 327 327 326 324 324 326 327 328 328 327 327 326 325 324 321 315 309 307 308 308 304 301 300 300 300 301
297 296 296 295 295 295 295 295 294 295 295 296 296 296 296 296 296 296 297 297 297 297 297 297 296 296 296 297 297 298 298 299 299 300 301 302 303 305 307 308 311 314 318 321 324 326 326 326 326 327 326 325 325 325 327 328 328 328 327 326 325 325 323 318 312 308 308 308 306 302 300 300 300 301
296 296 295 295 295 295 295 294 295 295 296 296 296 296 296 296 296 296 297 297 298 298 298 297 296 296 296 296 297 298 299 299 300 300 300 301 302 303 305 307 309 312 315 319 322 325 326 326 326 326 326 325 325 325 325 326 327 328 327 327 326 325 324 321 314 309 307 308 307 304 300 300 300 300
296 296 295 294 294 294 294 294 295 295 296 296 296 296 295 295 295 296 297 298 298 298 298 297 296 296 296 296 297 299 300 300 300 300 300 301 302 302 303 306 308 311 313 317 320 323 325 326 326 326 325 324 323 322 321 322 325 327 327 327 326 325 325 323 317 311 308 307 309 306 302 299 300 300
296 295 294 293 293 294 294 294 295 295 296 296 296 295 295 295 296 296 297 298 298 297 297 296 295 295 295 296 297 298 299 300 300 300 301 302 302 301 302 305 307 310 312 315 319 322 324 325 325 325 324 324 323 322 322 321 323 326 327 327 327 326 325 324 320 315 309 307 309 309 303 299 299 299
296 295 295 294 293 294 294 295 295 296 296 296 295 295 295 295 296 297 298 297 296 296 297 296 295 295 295 296 297 298 299 299 300 301 302 303 303 303 303 304 306 309 312 314 318 321 323 324 325 325 324 323 323 323 324 323 322 324 326 327 327 326 326 325 322 319 313 308 310 311 305 299 298 299
296 295 295 294 293 294 294 294 295 296 295 295 295 295 295 296 296 297 297 297 296 297 296 295 295 295 296 296 297 298 299 299 300 302 304 305 306 306 305 305 306 309 312 315 318 321 323 324 324 324 324 324 323 322 323 323 323 324 325 326 327 327 326 325 324 322 317 310 310 312 307 300 298 299
295 295 294 293 293 293 294 294 295 295 295 295 295 295 295 295 296 297 297 297 297 298 296 295 295 295 296 296 296 298 299 299 300 302 305 307 308 308 307 307 307 308 312 317 320 322 323 324 324 324 324 323 323 322 322 322 323 324 324 325 326 327 326 325 324 323 320 314 312 313 309 301 299 299
295 294 293 292 292 293 293 294 294 294 294 295 295 295 295 295 295 296 296 297 298 298 297 296 296 295 295 296 296 298 299 300 301 303 305 307 309 310 310 310 309 310 312 317 321 323 324 324 324 323 323 323 322 322 323 322 322 323 323 323 324 325 326 325 324 323 321 315 313 314 310 304 302 302
294 294 292 292 292 292 293 293 294 294 294 294 294 294 294 295 295 295 296 296 297 298 298 296 296 295 295 295 296 297 299 300 302 305 307 309 310 312 313 312 311 311 312 317 321 323 323 324 324 323 323 322 322 322 322 322 322 322 322 322 322 322 323 324 324 324 321 315 314 315 313 309 306 306
293 293 292 292 292 292 292 293 294 294 294 294 294 294 294 294 294 295 295 296 296 297 298 297 296 295 295 295 296 297 298 300 302 305 309 311 312 313 314 314 312 312 312 316 320 322 323 323 323 323 322 322 322 321 321 321 321 321 321 321 320 319 320 319 320 323 321 315 313 315 315 312 309 308
293 293 292 292 292 292 292 293 294 294 294 294 294 294 294 294 294 295 295 295 296 297 297 297 296 295 295 295 296 297 298 300 302 305 309 311 313 314 315 315 315 314 314 315 318 320 321 322 323 323 322 321 321 322 321 320 320 321 321 321 319 317 317 316 316 318 318 315 314 316 315 312 309 308
293 293 293 293 293 293 293 293 294 294 294 294 294 294 294 294 294 295 295 295 296 297 297 296 296 296 295 296 297 298 299 301 302 304 307 309 312 314 315 316 316 317 317 317 318 319 320 321 322 322 321 321 320 321 320 320 320 320 319 320 318 316 314 313 313 316 317 316 315 315 314 311 309 308
293 294 294 293 293 293 293 293 294 294 294 294 294 294 294 294 294 294 295 295 295 296 296 296 296 296 296 297 298 298 299 300 301 302 304 307 310 313 315 316 316 317 318 319 319 319 319 320 321 321 321 321 320 319 319 319 320 320 318 317 317 316 313 311 312 314 316 316 314 313 312 310 308 306
293 294 294 294 293 293 293 292 293 294 294 294 294 294 294 294 293 293 294 295 295 295 296 296 296 297 297 297 297 298 299 299 300 301 302 304 307 310 313 314 314 315 317 318 319 319 319 319 319 319 319 319 318 317 317 317 317 318 317 316 314 314 312 311 312 314 315 315 313 311 309 307 305 305
293 294 294 294 293 293 293 292 292 293 294 294 294 294 294 294 294 293 293 294 295 295 296 296 296 296 297 296 297 298 299 299 299 300 300 301 303 307 309 309 309 311 313 314 314 315 316 316 317 317 316 316 316 315 315 314 313 312 313 313 312 311 309 308 309 312 313 313 312 310 307 305 303 302
293 294 294 294 293 293 293 292 291 292 293 294 294 294 294 294 294 292 292 293 295 295 296 296 296 296 296 296 296 296 297 298 299 300 299 300 301 303 304 304 305 306 308 309 309 310 311 312 314 314 314 314 313 311 311 311 310 308 308 308 309 310 308 305 305 307 309 310 310 307 304 302 301 300
294 294 294 294 294 293 293 292 291 292 293 293 293 294 294 294 294 293 292 293 294 295 295 296 296 296 296 296 296 295 295 296 298 299 299 300 300 301 302 302 302 303 305 305 306 307 308 310 312 312 310 310 310 308 306 306 306 306 305 304 304 306 306 303 302 303 305 307 307 304 302 301 301 300
294 294 294 294 294 293 293 292 291 291 292 292 293 293 294 293 294 293 292 293 294 295 295 295 296 296 296 296 296 295 295 295 296 298 299 299 300 300 301 301 302 303 303 304 304 305 306 307 309 309 307 306 306 303 300 301 302 303 303 302 301 301 302 301 300 301 302 304 305 303 301 301 300 300
294 294 294 294 294 293 293 292 291 291 291 291 292 293 293 293 293 293 293 292 293 295 295 295 295 296 296 296 296 296 296 295 295 296 297 298 299 299 299 300 301 301 302 302 303 304 304 304 306 306 306 304 302 299 297 298 300 300 302 302 301 299 299 300 300 300 301 302 302 302 301 300 300 299
294 294 294 294 294 293 293 292 291 291 290 290 291 292 293 293 293 293 293 292 293 294 294 294 295 295 296 296 296 296 296 296 295 295 296 297 297 297 297 298 299 300 301 301 302 303 303 303 303 304 304 302 299 296 296 297 298 298 299 301 301 299 299 300 301 301 300 301 301 300 300 300 300 299
294 294 294 294 294 293 293 292 291 290 290 290 290 291 292 293 293 293 292 292 292 293 293 294 294 295 295 296 296 296 296 296 296 295 295 295 296 295 295 296 296 297 298 299 300 301 301 301 301 301 302 300 297 296 296 296 295 296 297 298 299 299 300 301 301 300 300 300 300 300 299 300 299 299
294 294 294 294 294 293 292 292 291 291 290 289 289 289 291 292 293 292 292 292 292 292 293 293 294 294 295 295 296 295 295 296 296 296 296 295 295 295 295 294 295 295 295 296 296 297 297 297 297 298 299 297 296 296 297 296 295 295 296 296 297 298 299 300 301 300 300 300 300 300 299 299 298 298
293 294 294 293 293 293 292 292 292 291 290 289 288 288 289 291 292 292 292 292 292 292 293 293 293 294 294 295 295 296 296 296 296 296 297 296 296 295 295 294 294 294 294 294 294 294 294 294 295 296 296 296 296 297 297 296 295 296 296 296 297 298 299 300 300 300 299 299 299 299 298 298 297 296
293 293 294 293 292 292 292 291 291 291 290 289 288 287 288 290 291 292 292 292 292 292 293 293 293 294 294 294 295 295 296 295 296 296 297 297 297 296 296 295 295 294 294 294 294 294 294 295 296 296 296 297 298 297 296 295 295 296 296 297 297 298 298 299 299 299 298 298 298 298 297 296 296 295
292 293 293 293 292 292 292 291 291 291 290 289 288 288 287 288 289 291 292 292 292 292 292 293 293 293 294 294 294 295 295 296 296 296 297 297 298 297 297 297 296 296 296 296 296 296 296 296 297 297 298 298 298 297 296 295 295 296 296 296 297 297 297 297 297 297 297 296 296 296 296 295 295 294
292 292 292 293 292 292 292 291 291 290 290 289 289 288 288 287 288 289 290 292 292 292 292 292 292 293 293 293 294 295 295 296 296 296 296 297 297 298 298 298 298 298 298 297 297 297 297 297 297 297 297 297 297 297 296 296 296 296 296 296 296 296 296 296 296 296 296 296 295 295 295 295 295 295
292 291 291 292 292 292 292 291 291 290 289 289 289 289 288 288 288 287 288 290 291 292 292 292 292 292 293 293 293 294 294 295 296 296 296 296 297 297 297 298 298 298 297 297 297 297 297 296 296 296 296 296 296 296 296 296 296 295 295 295 295 295 295 295 295 295 295 295 294 294 294 294 294 294
Wind_Speed
21 20 18 14 11 12 13 11 11 13 14 14 14 14 15 18 23 25 25 24 23 22 21 20 17 14 16 20 20 19 21 23 22 24 26 26 26 29 34 37 35 36 36 36 37 36 35 35 34 34 36 37 36 33 31 31 32 32 33 33 32 31 30 26 24 25 28 29 29 30 31 32 33 32
23 23 21 18 15 16 16 14 13 13 14 15 15 15 15 16 18 23 26 29 28 25 26 26 21 17 17 18 20 20 21 22 24 25 27 27 27 28 31 35 37 38 39 39 39 38 37 37 36 35 36 38 40 37 32 31 32 32 33 34 33 32 30 28 25 25 28 30 30 32 33 33 33 32
24 24 23 22 20 20 19 18 17 15 15 17 17 17 16 16 17 19 23 29 33 31 32 35 31 25 21 17 19 23 22 21 23 26 27 27 27 29 31 34 37 41 42 41 40 40 39 38 38 37 36 38 41 39 35 33 32 31 32 33 34 34 32 29 27 26 28 31 32 33 34 34 34 34
26 25 24 23 22 21 18 18 19 18 18 19 19 18 18 17 17 18 19 24 32 33 33 37 37 33 27 21 18 20 23 23 24 25 27 27 27 29 32 33 36 41 43 41 41 41 41 40 39 39 37 37 41 41 37 35 34 32 31 32 33 34 32 30 29 28 28 31 33 33 34 34 35 35
26 26 24 23 22 21 17 16 18 18 19 21 21 20 20 20 19 19 20 23 29 33 32 33 35 35 34 31 24 19 21 24 25 25 26 28 28 28 31 33 35 38 39 42 44 43 42 42 41 41 39 38 41 43 40 37 36 34 32 32 33 34 33 31 31 29 28 31 32 34 34 34 35 36
26 25 24 22 22 20 17 17 17 18 20 22 24 22 21 22 22 20 21 22 26 32 35 34 32 32 33 35 34 28 24 23 24 25 26 27 30 30 29 31 34 35 35 39 45 44 43 43 43 42 42 41 41 43 42 40 38 36 35 34 34 34 33 32 32 31 29 30 32 33 34 35 36 37
25 24 23 22 21 19 18 18 18 19 22 23 22 22 22 23 23 21 21 22 25 30 35 36 34 33 33 33 35 36 34 28 25 26 26 26 29 31 31 31 32 35 34 35 41 44 44 44 45 44 43 43 43 44 44 43 41 39 37 36 35 35 34 34 33 32 31 31 31 33 34 35 37 38
24 22 21 21 20 19 18 18 18 20 23 23 20 21 22 23 23 23 22 22 24 27 33 37 37 36 37 35 32 33 36 35 31 28 27 27 28 30 32 32 32 33 35 35 36 42 46 47 46 46 46 44 44 45 45 45 44 42 39 38 37 37 36 35 35 34 32 32 32 33 34 35 37 39
23 21 19 19 19 19 19 19 20 22 23 23 22 21 22 23 24 25 25 24 23 25 29 35 38 37 36 37 35 32 32 36 36 33 29 28 30 31 32 34 34 34 36 36 35 36 43 48 49 48 48 47 46 46 46 46 46 44 42 40 39 39 38 37 36 36 34 32 33 34 34 34 37 39
21 20 20 18 18 20 21 23 24 25 26 28 28 26 25 26 26 27 27 25 24 24 26 31 35 35 32 33 34 33 31 32 36 37 35 32 30 31 32 35 36 37 37 37 36 35 37 45 52 52 50 49 48 47 47 47 47 46 45 43 41 41 40 38 37 37 36 34 34 35 35 35 36 40
18 18 19 18 18 19 21 24 26 26 29 32 34 32 30 30 30 28 27 25 23 24 26 28 31 32 30 29 30 31 29 30 32 33 36 36 33 32 33 35 35 37 39 38 37 36 35 40 48 52 51 50 48 48 48 48 48 47 46 45 43 42 41 40 39 39 38 36 35 36 36 35 36 40
17 18 18 17 18 20 22 24 25 26 30 34 35 35 35 34 32 30 28 27 25 24 26 28 29 30 30 28 28 28 27 26 27 28 31 35 36 34 34 36 35 35 38 39 38 38 38 38 40 45 50 52 51 50 50 50 49 48 48 47 45 43 42 42 40 40 39 38 37 37 37 36 37 40
18 19 18 17 19 22 24 26 26 27 32 34 36 38 39 38 36 34 32 29 27 26 27 28 29 30 31 29 27 28 27 26 28 30 32 34 35 34 33 35 36 33 35 39 40 40 40 40 38 39 46 53 54 54 53 52 51 49 49 48 47 45 43 42 41 40 40 40 39 38 38 37 38 41
17 18 18 18 19 22 24 25 25 28 34 37 37 37 37 37 36 35 33 30 28 29 29 29 30 31 32 31 29 29 31 31 31 31 32 33 34 34 33 35 36 34 34 37 40 42 43 42 41 41 43 47 53 57 56 53 52 50 50 50 49 47 45 44 42 41 40 41 40 40 39 39 39 41
18 18 18 19 19 20 23 24 24 29 36 39 39 37 36 35 33 31 31 30 29 30 30 31 30 31 34 34 31 31 32 32 31 30 29 29 32 33 34 35 35 33 34 36 39 43 45 45 45 45 44 43 49 57 58 55 53 51 51 51 51 49 47 46 44 42 41 42 42 41 41 40 40 42
18 18 20 20 19 20 24 25 25 32 39 41 40 39 36 33 30 29 29 29 29 29 30 31 30 31 34 35 34 33 32 32 32 30 29 29 30 32 34 36 36 34 33 35 38 41 45 47 47 48 46 43 45 53 58 57 54 53 53 53 52 51 49 47 46 44 43 43 43 42 42 42 41 43
18 19 20 20 20 23 26 25 29 36 41 41 41 38 32 29 29 30 29 27 27 28 29 30 33 34 35 37 38 36 33 34 35 34 33 32 30 32 33 35 37 35 33 36 38 40 44 47 48 49 48 44 43 47 53 58 57 55 54 54 53 53 52 49 47 46 44 44 44 44 43 43 43 43
19 20 20 21 24 27 26 27 33 38 40 41 39 33 27 26 28 29 28 26 26 29 29 31 36 38 38 39 41 39 36 36 36 36 36 35 33 34 34 34 37 37 34 34 38 41 44 46 49 51 49 45 44 44 47 54 57 57 56 56 55 54 54 51 49 47 46 45 45 45 44 44 44 44
20 20 20 23 26 27 26 29 34 37 39 40 35 28 26 28 29 30 28 28 31 34 35 35 37 39 39 40 40 40 38 38 38 37 37 37 36 37 37 38 39 41 38 34 36 41 44 44 48 52 49 46 45 42 41 47 55 60 58 56 56 56 55 54 51 48 47 46 46 46 46 45 45 45
20 21 22 23 26 27 28 32 34 35 38 38 32 28 28 30 33 35 34 35 37 38 39 40 38 38 38 39 40 39 38 39 39 38 39 40 37 35 37 42 43 42 41 38 36 38 42 42 46 49 48 46 46 43 41 42 49 58 61 58 57 57 56 55 53 50 48 48 48 47 47 47 46 45
20 21 22 25 28 30 31 33 34 35 38 38 32 29 31 34 36 39 39 39 39 39 41 40 38 36 36 37 39 38 37 36 33 34 40 43 38 35 38 44 46 42 40 40 37 36 39 40 42 45 46 47 47 46 45 43 45 52 60 60 57 57 58 56 54 52 49 49 49 48 47 47 47 45
20 20 23 27 30 31 32 33 33 34 37 38 32 29 34 39 40 41 40 41 42 43 43 39 34 33 33 33 35 35 35 33 30 34 40 41 39 40 41 42 44 42 40 40 38 34 36 38 40 41 43 44 46 47 47 45 43 47 56 61 59 57 59 59 56 53 50 49 49 49 48 48 47 45
20 20 22 26 29 30 31 33 33 34 38 37 31 30 37 42 42 41 42 43 45 47 47 42 35 31 31 31 31 30 31 30 30 35 38 37 39 46 46 40 37 38 40 41 38 35 35 37 39 39 39 39 41 44 45 45 44 44 51 59 61 59 59 59 58 54 51 49 49 49 49 48 48 46
20 21 21 24 28 29 31 34 34 35 38 36 30 33 40 41 41 42 44 44 45 47 49 46 39 35 35 33 30 27 26 26 28 31 33 35 40 46 48 44 38 38 39 38 35 35 35 35 38 41 39 36 35 39 44 45 45 44 48 56 61 61 60 60 58 55 51 49 49 50 49 48 48 47
19 21 22 25 28 29 31 34 36 37 39 35 31 35 40 40 40 42 43 45 46 47 50 49 44 41 40 36 30 24 21 23 25 26 27 31 36 42 47 48 43 41 40 35 30 31 33 35 39 41 40 37 35 35 39 43 44 44 47 53 59 62 62 62 61 58 53 50 49 50 49 47 47 47
18 21 25 26 28 30 32 35 37 39 39 37 35 39 42 41 42 43 43 45 47 48 51 52 49 47 44 39 32 25 19 19 22 23 23 27 31 35 42 47 47 44 40 34 31 32 32 34 38 42 41 39 37 35 34 37 41 43 45 49 55 62 65 65 64 61 57 52 50 49 47 45 44 45
20 23 27 28 29 31 33 35 36 37 38 38 39 42 44 44 46 46 45 45 47 49 52 54 52 49 47 43 37 28 20 18 19 18 21 24 26 27 31 38 42 41 38 35 32 32 34 36 37 40 41 40 39 38 35 35 38 41 44 47 51 58 64 66 67 65 60 54 50 47 44 41 41 43
23 26 29 30 31 32 34 34 33 34 37 39 40 43 45 46 48 48 47 47 49 51 54 56 54 52 50 46 40 32 24 20 17 14 16 19 21 21 20 23 30 34 37 38 31 25 29 35 36 37 40 41 41 41 40 38 37 37 41 45 47 52 58 63 66 67 63 54 49 48 46 43 43 46
26 28 31 32 31 32 33 32 29 31 36 38 39 41 43 45 48 50 49 50 50 53 56 57 56 55 52 47 41 34 27 22 16 8 10 13 15 17 17 17 20 26 33 39 37 28 25 28 31 33 37 39 40 41 42 41 37 35 38 43 44 47 53 57 60 64 62 57 53 53 51 49 49 50
26 27 29 31 30 29 31 31 27 29 33 35 36 38 40 43 49 51 51 52 53 54 57 58 57 56 53 47 41 34 28 24 20 13 4 4 11 17 20 20 21 22 25 31 35 32 27 25 27 30 33 35 36 39 40 38 35 34 36 40 42 43 47 52 55 58 58 55 54 56 54 51 49 48
25 24 25 28 28 26 29 29 26 27 30 32 34 36 37 43 50 52 51 52 53 54 57 58 57 56 53 48 43 39 33 28 25 24 17 8 11 17 19 20 20 20 20 21 23 24 24 25 27 28 30 32 34 36 36 34 35 35 35 37 39 41 43 48 52 54 53 52 53 54 53 50 46 43
24 21 22 25 27 26 28 30 28 27 29 31 33 35 36 40 47 52 52 53 54 54 55 57 57 57 55 51 47 42 39 34 30 29 26 20 16 16 18 18 17 17 17 16 16 17 20 24 26 27 29 31 32 33 33 31 32 34 35 36 38 40 42 47 51 52 52 52 52 50 47 45 42 39
22 20 21 24 27 27 28 31 31 29 29 30 32 35 36 37 42 50 54 55 54 54 55 56 57 58 57 55 50 45 42 39 34 33 32 29 25 22 20 20 19 17 16 15 13 14 16 20 23 23 25 28 28 28 29 28 28 30 33 36 38 39 40 44 50 54 54 56 56 50 43 41 39 35
20 20 22 24 26 27 27 30 33 32 30 31 33 35 36 37 39 46 51 53 53 53 54 55 56 57 57 57 54 50 47 43 37 35 35 34 31 30 29 29 27 23 21 19 15 12 11 13 16 17 18 21 22 23 23 25 28 31 33 34 36 40 41 42 46 51 54 57 57 52 44 39 36 33
18 21 23 24 26 27 26 28 32 31 29 30 32 33 35 37 39 43 47 50 50 51 53 54 54 55 56 56 55 53 50 47 41 36 36 36 35 33 32 31 29 27 24 23 19 14 10 7 10 12 14 16 17 18 19 21 26 31 33 33 35 39 44 45 45 48 52 53 52 50 46 41 37 34
18 21 23 23 25 26 25 26 30 30 28 29 30 31 34 37 38 39 43 47 48 49 52 53 53 54 54 55 55 54 51 49 46 41 38 36 34 33 31 30 27 25 24 23 19 15 12 8 5 8 14 19 20 21 19 19 24 29 32 33 35 38 43 45 44 46 49 49 47 46 45 42 38 36
18 19 21 22 22 24 24 26 28 29 28 28 28 29 32 35 36 36 40 44 46 48 50 50 51 53 53 53 54 55 52 49 48 46 42 37 34 33 32 29 26 23 22 21 19 16 14 13 10 9 15 23 28 28 24 22 25 28 31 34 37 40 44 46 47 46 45 44 42 42 43 43 41 39
18 18 19 21 22 23 24 25 27 28 28 28 28 28 29 32 34 34 37 42 46 47 47 47 48 51 52 51 51 53 54 51 48 46 44 40 38 37 35 32 28 24 21 19 17 16 14 16 17 15 17 25 32 33 30 28 27 28 32 36 39 42 44 46 47 45 42 42 42 41 40 41 40 39
17 17 19 20 21 22 23 24 26 27 28 27 28 28 28 30 33 34 37 42 45 43 42 44 45 46 49 51 48 47 50 52 50 48 45 42 40 39 38 36 34 30 26 23 21 18 15 17 20 19 21 28 35 36 36 34 31 31 34 37 40 43 43 43 44 45 43 43 43 41 38 37 37 37
17 17 18 20 20 21 23 24 24 26 27 27 27 27 26 26 30 34 36 40 43 40 39 41 42 42 44 47 47 44 45 48 49 48 46 42 39 38 38 39 39 38 37 36 34 31 29 29 28 26 28 35 37 36 38 38 36 34 35 36 37 40 41 40 41 42 41 39 37 37 38 39 38 36
18 16 17 19 19 20 22 23 23 25 27 28 29 29 26 24 27 31 33 36 40 39 37 38 41 40 39 42 44 43 42 43 45 46 45 42 39 37 38 39 40 40 41 41 39 38 38 38 38 36 36 38 37 36 38 41 39 36 35 34 33 34 34 34 35 36 36 36 35 37 39 39 37 35
18 16 16 18 19 19 21 22 23 24 27 29 31 32 29 26 27 29 31 34 37 38 36 36 37 38 38 38 39 39 39 38 39 40 43 43 40 36 36 38 39 39 40 39 37 35 35 37 37 37 37 37 37 39 42 42 39 37 35 34 32 32 32 32 33 35 37 38 38 39 40 38 37 36
17 16 16 17 18 19 20 22 22 23 26 29 31 32 32 30 29 28 30 32 34 36 36 36 35 35 36 37 37 37 36 35 33 33 36 40 40 37 34 35 37 37 38 40 39 37 37 37 37 37 37 38 39 41 42 40 37 36 35 33 33 32 32 33 34 36 37 38 37 37 38 37 37 36
16 16 15 16 17 18 19 21 22 23 25 28 30 31 32 32 30 29 28 29 30 32 34 35 35 34 33 34 36 36 34 33 32 31 29 31 35 36 34 33 35 37 39 39 39 38 38 37 38 38 39 39 39 40 39 38 37 36 34 33 33 32 31 31 31 32 32 32 32 32 31 31 32 31
15 16 16 16 16 17 19 20 21 22 25 27 28 29 31 32 31 30 29 27 28 29 31 33 34 33 31 31 33 34 33 31 31 31 28 25 26 30 32 32 32 34 35 36 36 37 36 36 36 37 37 36 35 35 35 34 33 33 32 32 32 31 29 29 28 28 28 27 26 24 23 23 23 22
Wind_Direction
10 7 4 1 355 353 351 346 343 344 345 341 333 326 315 307 306 308 311 307 301 303 308 309 304 287 279 289 294 291 281 271 265 263 264 265 262 252 244 241 237 232 229 228 228 228 227 227 223 219 219 219 215 212 211 211 210 211 212 214 216 219 222 225 224 218 212 208 205 203 202 201 200 199
17 14 11 8 360 356 358 356 350 346 346 344 339 330 319 310 305 305 308 305 297 296 296 293 292 293 293 292 291 291 288 276 266 261 261 262 260 257 250 243 238 235 231 228 228 228 226 227 225 221 220 222 218 211 209 212 213 214 216 217 219 222 224 225 224 218 213 209 207 205 204 204 201 199
19 17 15 11 2 358 1 360 356 352 347 344 342 337 330 324 316 309 308 302 294 293 293 288 283 286 293 298 294 289 285 279 271 262 258 258 257 255 254 249 241 237 233 228 227 227 226 226 226 223 221 223 220 213 209 212 214 215 218 220 222 224 226 227 225 219 213 211 209 207 206 205 202 200
17 17 16 11 3 360 359 357 356 353 349 346 344 340 334 331 327 319 316 307 299 299 298 291 285 283 283 287 294 291 283 279 277 267 258 256 256 253 252 251 245 240 236 229 226 227 227 226 226 224 222 222 219 214 213 214 215 216 218 220 222 224 225 225 224 220 214 211 210 209 208 206 203 201
16 16 15 9 4 3 358 354 354 350 348 347 344 340 335 332 330 325 319 313 308 309 309 301 294 288 283 279 279 286 286 281 277 274 266 258 255 252 250 250 249 247 241 231 227 226 225 226 226 224 223 220 217 216 218 219 218 217 218 220 221 222 221 221 221 220 215 211 212 211 210 207 204 203
15 13 12 7 3 3 359 354 353 350 348 345 342 340 336 332 330 327 322 316 311 312 315 314 307 300 295 284 275 274 281 281 277 278 275 263 256 253 251 250 251 252 246 234 228 225 224 226 226 225 223 220 218 218 221 222 221 219 219 221 222 221 219 218 220 220 216 213 214 213 211 208 206 204
14 12 10 5 2 0 357 354 353 351 349 346 343 339 335 332 329 326 322 317 312 311 314 317 315 310 306 297 284 276 274 275 278 280 276 266 260 256 252 250 249 250 250 242 233 227 225 225 226 226 225 222 220 221 222 223 224 222 220 221 223 222 220 218 219 219 217 215 215 215 214 210 207 205
12 11 7 2 360 358 355 353 352 351 351 349 345 339 335 333 329 324 321 316 312 309 309 312 315 314 311 307 300 288 277 269 270 276 276 268 262 257 251 248 248 248 251 251 244 233 226 224 225 226 226 224 222 222 222 223 225 224 222 221 223 223 221 219 218 218 218 217 216 216 216 212 208 206
10 8 4 360 358 356 355 355 353 351 351 349 346 342 337 334 331 326 322 316 311 307 305 308 312 314 313 310 307 303 292 277 268 269 273 271 266 261 252 248 247 248 250 253 253 245 233 226 225 225 226 225 224 222 222 223 225 226 224 222 222 223 221 220 219 219 218 217 217 217 217 215 210 206
8 5 1 359 356 355 355 356 354 350 349 349 348 345 340 336 333 328 324 319 312 306 303 305 308 309 309 308 306 306 304 293 280 270 268 269 268 263 256 250 247 247 249 250 252 252 243 232 226 224 225 225 225 224 223 223 224 226 226 224 222 222 221 220 220 220 218 216 217 218 217 216 212 206
4 1 360 358 356 356 356 354 352 349 348 349 348 345 341 337 334 329 325 321 313 309 305 303 304 304 304 304 302 303 302 299 294 283 272 269 267 263 258 253 248 246 246 248 249 250 249 241 231 226 225 226 226 225 224 224 224 225 225 225 224 222 221 219 220 220 219 216 217 218 217 217 213 206
2 1 359 357 355 356 356 353 350 348 347 347 345 344 342 338 333 329 325 321 316 312 307 304 304 303 303 302 300 301 300 296 295 292 283 273 266 265 264 257 251 248 246 246 246 246 247 247 241 232 227 226 227 227 225 224 224 224 224 225 224 223 220 218 219 220 219 216 215 217 217 216 213 207
2 1 359 356 355 355 354 351 348 345 344 343 342 342 342 338 334 330 327 323 317 312 308 305 304 303 301 301 300 298 296 293 291 291 290 282 270 265 266 262 257 253 250 247 244 243 244 246 246 241 233 226 225 227 227 224 223 223 224 225 225 223 221 218 218 219 219 217 215 216 217 215 213 208
0 359 358 355 353 353 350 348 345 341 340 341 341 341 340 338 336 332 326 322 316 311 307 304 303 301 298 297 297 295 291 292 293 290 290 289 279 269 265 265 263 259 255 250 245 244 245 244 243 243 240 232 225 225 227 226 224 223 223 224 224 223 222 219 218 218 219 218 215 215 215 215 212 209
359 359 358 356 354 352 348 347 343 338 338 341 341 339 338 338 337 331 322 317 313 309 305 302 301 298 295 294 294 293 291 291 290 287 285 286 284 275 268 266 264 260 256 252 247 246 247 246 242 241 241 239 230 225 225 225 224 224 224 223 223 223 222 220 218 217 219 219 217 215 214 213 212 210
359 359 358 356 355 351 348 346 342 338 338 340 340 338 339 339 336 329 320 314 311 307 304 302 299 295 294 294 292 290 289 289 287 285 282 279 277 275 271 265 262 260 259 255 249 246 246 245 243 240 239 240 236 229 225 225 224 224 224 223 223 222 221 221 219 217 218 219 217 216 214 213 212 211
360 359 357 356 353 350 348 345 341 340 339 340 341 341 339 335 330 328 325 318 311 306 303 299 297 296 294 290 288 287 285 284 283 281 279 277 273 271 269 264 259 258 261 259 252 247 246 244 242 242 240 238 237 233 227 224 223 224 224 223 222 222 221 221 220 218 218 219 218 216 215 213 212 211
0 358 356 355 353 349 348 345 342 341 341 342 343 341 335 330 329 329 327 322 315 312 309 301 297 298 295 288 286 286 282 278 278 276 275 274 272 270 269 266 258 251 255 261 255 247 246 244 240 240 241 236 234 235 231 225 223 223 224 223 222 222 221 220 220 218 217 218 218 216 215 213 212 212
359 358 357 355 352 349 348 347 347 345 345 346 345 338 333 332 331 329 325 323 323 322 319 312 305 302 299 294 289 285 280 275 272 271 271 271 271 271 270 268 259 248 244 252 254 246 242 242 238 237 238 235 232 234 233 228 225 224 224 223 222 222 221 221 220 218 217 217 217 216 215 214 213 213
360 356 355 354 353 353 353 353 352 351 350 350 347 339 336 336 333 332 331 329 328 327 324 322 316 309 304 300 295 289 281 275 271 270 268 266 265 268 268 265 261 251 241 243 249 246 240 238 236 234 235 236 234 233 234 232 228 224 223 223 222 221 221 221 220 219 217 216 217 216 215 214 213 213
1 354 351 358 1 1 360 357 356 356 355 355 351 343 341 341 340 339 337 334 333 333 332 330 323 314 309 304 299 292 284 277 274 271 266 261 258 258 259 260 260 256 246 240 245 247 241 238 236 232 232 236 237 236 236 235 231 227 224 224 223 221 221 221 220 219 217 216 215 215 214 213 212 212
359 354 355 3 7 5 2 1 2 3 1 360 355 347 346 350 350 348 344 343 344 343 341 338 328 317 314 310 302 293 286 281 276 269 263 260 256 253 251 252 258 259 251 241 240 245 244 242 240 233 228 231 235 236 235 234 234 230 225 223 223 222 220 220 220 219 217 216 215 214 214 212 210 211
355 356 357 2 7 6 5 7 9 10 8 5 359 351 354 357 356 354 353 352 351 350 349 346 335 325 324 321 310 295 285 281 276 268 263 259 254 251 248 246 250 253 248 239 235 239 243 242 240 233 223 220 224 227 229 231 234 234 228 223 222 222 221 220 220 220 218 216 214 213 212 211 209 208
354 358 357 360 6 8 9 12 14 14 13 10 2 357 0 2 359 357 359 357 354 354 354 350 343 338 337 334 322 304 290 285 280 272 265 256 249 247 246 242 240 243 245 239 234 237 241 238 235 233 227 222 220 221 222 225 230 234 230 225 222 222 220 219 219 219 219 217 214 212 211 210 209 207
356 357 360 3 7 10 13 16 18 17 15 12 5 2 4 3 360 359 360 359 358 359 358 354 351 350 347 342 333 317 301 294 286 274 264 256 248 244 243 240 237 239 241 236 233 238 239 235 232 230 227 226 226 226 222 221 225 231 230 227 224 222 220 217 216 217 218 217 214 211 209 209 208 208
356 357 3 7 9 12 16 19 19 17 15 13 10 8 6 4 2 1 360 359 359 1 0 359 358 357 354 349 343 331 315 305 294 272 255 252 252 247 243 240 239 239 236 230 232 237 236 234 232 227 223 221 223 227 225 221 222 227 228 227 226 223 219 217 215 213 213 213 211 209 208 208 208 207
360 3 8 11 12 15 17 19 18 14 13 14 14 11 8 7 6 4 1 0 1 2 3 3 2 1 360 356 353 346 337 327 309 275 245 241 247 248 245 243 242 239 232 227 232 238 238 237 235 229 226 224 221 222 224 223 222 222 223 225 226 224 219 216 214 212 209 207 205 204 205 205 205 204
9 12 11 11 14 16 16 15 13 10 11 15 15 12 11 11 9 7 5 4 4 4 5 6 5 4 4 2 0 358 357 354 333 287 243 232 238 239 239 243 242 237 229 225 229 239 241 239 238 235 231 227 225 224 225 225 223 223 221 221 222 222 218 213 210 208 206 203 199 199 201 199 198 200
14 15 13 11 11 12 13 11 6 3 7 11 11 10 12 13 12 10 9 8 7 7 8 8 7 6 7 7 8 8 11 15 5 312 242 224 226 224 218 222 231 234 232 229 231 238 240 236 238 239 232 227 228 230 229 225 224 226 226 221 218 218 216 212 206 203 200 196 194 196 198 195 194 197
10 11 10 9 6 5 8 8 3 360 3 6 6 7 10 13 14 14 12 11 10 9 9 8 8 9 10 11 14 18 23 28 33 35 41 192 198 201 203 203 207 218 227 228 230 236 239 236 238 239 235 230 229 229 229 227 226 226 226 221 217 214 211 208 204 199 196 193 192 194 193 192 193 197
5 4 2 4 4 2 4 7 6 2 3 5 6 5 7 11 14 15 14 13 12 11 9 9 10 12 14 15 18 24 30 34 41 48 51 78 145 169 186 191 189 196 205 212 219 224 227 229 232 234 235 235 230 225 225 228 230 227 221 218 218 215 209 203 199 195 193 193 192 188 186 187 191 194
4 0 356 1 5 3 3 6 6 3 3 5 5 5 6 7 10 13 14 14 14 13 12 11 12 14 18 20 20 25 32 36 43 51 54 63 97 134 160 164 159 167 178 186 196 204 210 217 222 222 225 228 226 222 219 219 223 223 217 212 212 209 203 199 196 192 191 192 189 183 180 182 185 190
4 358 356 0 3 3 3 5 6 5 3 1 1 3 4 2 4 9 13 14 14 14 14 14 13 16 21 23 24 27 32 37 43 52 56 61 76 95 110 112 112 125 137 143 158 178 193 204 211 213 215 215 214 213 213 209 206 207 206 205 204 199 191 188 187 186 186 187 184 179 178 178 179 182
5 358 359 0 1 1 0 2 5 4 0 357 358 0 1 2 3 8 12 14 14 15 17 17 15 17 22 25 26 28 31 35 42 51 56 62 72 81 85 86 88 95 102 106 113 130 158 185 197 199 203 206 202 196 197 199 194 189 188 189 192 192 185 179 175 175 177 179 177 172 169 170 170 171
3 1 4 1 360 0 358 358 2 2 357 356 358 359 0 4 5 7 11 15 16 17 19 19 18 19 22 25 27 30 32 35 40 46 53 60 68 75 78 81 83 86 90 93 94 96 108 148 183 179 172 180 181 168 165 176 181 179 175 171 171 175 174 170 166 164 167 172 173 166 159 158 159 161
2 6 7 3 1 0 357 357 0 0 356 355 357 358 0 3 5 7 11 16 19 20 21 21 20 20 21 25 28 31 34 37 40 43 47 53 61 68 73 77 82 86 90 92 93 94 100 113 151 160 148 147 142 128 125 147 165 169 169 164 158 158 160 159 157 155 156 163 168 164 156 150 151 153
4 8 7 4 2 0 358 358 360 359 357 356 356 359 2 3 4 6 10 17 22 23 22 21 22 22 23 25 29 33 36 39 42 44 46 50 54 59 64 68 73 81 87 92 96 101 106 114 124 134 139 136 126 113 114 135 151 156 161 163 158 154 153 154 153 151 151 154 158 158 154 150 148 150
5 5 1 1 1 359 358 359 359 360 360 358 357 359 2 3 4 6 11 19 26 25 21 20 21 23 25 26 28 31 35 38 42 45 47 50 54 55 58 61 64 71 79 87 95 100 107 117 123 129 137 131 120 115 120 129 133 139 150 158 158 154 153 154 152 149 149 150 149 149 151 151 149 151
5 1 358 359 360 358 359 359 359 0 1 0 360 2 1 2 6 8 12 21 27 24 18 18 21 21 24 26 27 28 31 34 39 43 45 49 54 57 59 62 64 67 71 75 81 89 99 110 118 129 137 129 119 120 124 122 120 128 139 146 150 152 154 155 151 146 145 147 146 145 147 148 149 154
6 1 359 360 359 359 359 360 360 2 3 2 3 6 4 2 8 12 13 20 27 23 16 18 21 19 19 23 26 27 28 31 36 41 44 48 54 59 64 67 70 73 75 76 79 84 89 95 103 115 122 119 119 125 127 120 116 122 127 131 138 144 147 149 147 143 142 145 147 148 149 150 152 154
7 2 359 0 1 0 1 1 1 2 5 5 8 11 9 3 8 13 14 19 26 24 17 17 20 19 17 20 23 26 29 29 32 37 43 47 53 60 66 71 74 76 77 77 79 82 87 94 101 106 110 114 119 122 118 110 107 111 115 119 126 132 136 139 141 140 142 147 151 150 148 149 150 151
5 2 359 0 2 2 2 3 3 2 5 9 12 14 13 9 9 13 14 19 25 26 20 17 19 18 18 20 22 23 26 28 30 34 40 46 51 59 66 70 73 76 77 78 80 84 92 100 105 108 111 115 117 114 107 104 106 110 114 119 123 127 131 135 138 139 142 145 147 146 145 146 147 147
5 4 0 359 2 2 2 5 6 4 6 11 14 16 17 15 13 14 14 18 24 26 24 22 21 19 18 21 23 23 25 28 30 32 37 43 49 56 64 71 74 78 81 83 86 90 95 100 104 106 107 107 106 104 102 104 107 109 112 116 119 122 126 131 134 137 139 141 142 143 145 146 147 147
4 6 2 359 360 360 0 4 7 6 8 12 13 15 17 18 18 17 15 16 20 25 27 27 25 21 18 21 24 25 25 27 31 32 35 41 48 53 61 70 77 81 84 86 88 89 91 93 95 97 97 97 99 101 103 104 106 108 110 113 116 119 122 126 129 133 135 135 137 140 143 147 148 148
2 5 6 3 359 357 358 2 4 6 10 12 12 13 15 17 19 19 18 16 17 22 27 29 27 25 22 21 24 28 28 29 32 35 36 38 44 50 58 67 76 82 85 87 89 90 90 91 91 92 93 95 97 99 102 104 106 108 111 113 115 117 119 122 124 126 126 127 130 134 138 141 141 139